Regional Weather Roundup
Issued by NWS Charleston, SC

Current Version | Previous Version | Graphics & Text | Print | Product List | Glossary On
Versions: 1 2 3 4 5 6 7 8 9 10 11 12 13 14 15 16 17 18 19 20 21 22 23 24 25 26 27 28 29 30 31 32 33 34 35 36 37 38 39 40 41 42 43 44 45 46 47 48 49 50
000
ASUS42 KCHS 220413
RWRCHS

Regional Weather Roundup
National Weather Service Charleston SC
1200 AM EDT SUN APR 22 2018

NOTE: "fair" indicates few or no clouds below 12,000 feet with no
significant weather and/or obstructions to visibility.

Not all stations are quality controlled. Use data with caution,
especially dewpoint observations.

SCZ027-030-031-034>040-042>050-220500-
...Southeast South Carolina...

CITY           SKY/WX    TMP DP  RH WIND       PRES   REMARKS
N Charleston   FAIR      58  53  84 E7        30.32F
Waterfront Prk NOT AVBL
Mount Pleasant FAIR      61  55  82 E3        30.33S
Johns Island   FAIR      61  55  82 NE9       30.32F
Pinopolis        N/A     57  52  82 E6        30.24F
Moncks Corner  FAIR      55  48  76 E3        30.33F
Summerville    FAIR      55  50  82 E5        30.33F
Beaufort MCAS  CLOUDY    62  57  83 E6        30.31F
Beaufort Arpt  MOCLDY    63  55  77 E10       30.31S
Hilton Head Is CLOUDY    64  59  82 VRB7      30.31F
Walterboro     FAIR      55  50  82 CALM      30.32F
Allendale      CLOUDY    61  52  72 E5        30.30F

...Southern Midlands and Pee Dee...

CITY           SKY/WX    TMP DP  RH WIND       PRES   REMARKS
Georgetown     FAIR      55  55 100 E6        30.35F
Kingstree      FAIR      54  48  82 CALM      30.34F
Orangeburg     FAIR      58  49  72 SE7       30.32F
Barnwell       CLOUDY    61  52  72 E8        30.31F
Aiken          CLOUDY    59  50  72 SE7       30.34S
Manning        FAIR      50  45  81 CALM      30.34S
Columbia       FAIR      60  51  72 E5        30.32S
Sumter         FAIR      56  47  71 E6        30.31F
Florence       FAIR      54  47  77 SE5       30.34F
Myrtle Beach   FAIR      59  48  67 E10       30.36F
N Myrtle Beach FAIR      61  46  57 SE6       30.34F

$$

GAZ063-065-086>088-099>101-113>116-118-119-134>141-150-220500-
...Southeast Georgia...

CITY           SKY/WX    TMP DP  RH WIND       PRES   REMARKS
Savannah Arpt  MOCLDY    62  55  77 E9        30.29F
Hunter AAF     FAIR      63  56  77 E9        30.26F
Fort Stewart   FAIR      61  54  79 E6        30.26F
Statesboro     CLOUDY    64  50  61 E5        30.29S
Sylvania       CLOUDY    63  55  77 SE6       30.30S
Claxton        FAIR      63  55  75 CALM      30.28F

...CSRA, Central and far Southeast Georgia...

CITY           SKY/WX    TMP DP  RH WIND       PRES   REMARKS
Thomson        CLOUDY    64  53  66 SW7       30.33S
Augusta-Bush   CLOUDY    63  53  70 SE7       30.29F
Augusta-Daniel CLOUDY    65  52  62 SE7       30.30F
Swainsboro     CLOUDY    64  54  68 E8        30.29S
Vidalia        FAIR      63  55  77 E7        30.27S
Eastman        CLOUDY    65  49  56 E6        30.28S
Hazlehurst     FAIR      63  54  72 E5        30.24F
Alma           CLOUDY    63  56  78 E7        30.25S
Waycross       FAIR      61  58  90 E8        30.24F
Jesup          NOT AVBL
Baxley         CLOUDY    61  59  94 E7        30.25F
Brunswick      FAIR      63  59  88 E10       30.27F
Saint Simons   CLOUDY    66  63  90 E9        30.26F

$$

SCZ027-028-034-036>038-045-046-048>050-GAZ119-141-220500-
...Lake and Supplemental Coastal Observations...

STATION/POSITION TIME  TEMP    WIND        PRES    WAVE   SWELL
                       AIR SEA DIR/SP/G            HT/PER HT/PER/DIR
                 (UTC) (F)     (DEG/KT/KT) (MB)    (FT/S) (FT/S/D)
Winyah Bay       0245   61      90/ 10     1028.0
Lake Murray      0320   62     120/  6/ 10 1025.7S
ACE Basin NERRS  0245   60     350/  3       N/A
Fort Pulaski     0342   64 65   80/ 15/ 19 1026.1F
Sapelo Island    0300   63      30/  4     1025.0

$$

ANZ835-935-AMZ111-154-330-350-352-354-370-450-454-472-220500-
...C-MAN and Buoy Observations...

STATION/POSITION TIME  TEMP    WIND        PRES    WAVE   SWELL
                       AIR SEA DIR/SP/G            HT/PER HT/PER/DIR
                 (UTC) (F)     (DEG/KT/KT) (MB)    (FT/S) (FT/S/D)
Buoy 41004       0400   67 67   70/ 16/ 17 1026.3
Buoy 41008       0350   66 65  120/  8/  8 1024.9R   5/ 7   5/120/ 7
Folly Beach CMAN 0400   63      60/ 14/ 16 1027.2F
Capers Nearshore 0308   63 63   70/ 14/ 17 1027.1F
Fripp Nearshore  0308   63 63   70/ 14/ 19 1025.8F


STATION/POSITION TIME  TEMP    WIND        PRES    WAVE   SWELL
                       AIR SEA DIR/SP/G            HT/PER HT/PER/DIR
                 (UTC) (F)     (DEG/KT/KT) (MB)    (FT/S) (FT/S/D)
5E St. Marys GA  0400      66                N/A     6/ 7
Frying Pan Buoy  0350   65 68   70/ 12/ 16 1027.5F   4/ 6   2/ 70/ 8
Buoy 41025       0400   59 74   60/ 10/ 14 1029.2
Cape Lookout NC  0300          100/ 12/ 13 1029.0S
Buoy 41002       0350   65 72   70/ 14/ 17 1026.8F   4/ 8   3/ 30/ 8
Buoy 41010       0350   72 76   70/ 19/ 23 1023.6F   7/ 7   2/ 80/15
St Augustine FL  0400   69 67   90/ 14/ 16 1023.6S


$$




USA.gov is the U.S. government's official web portal to all federal, state and local government web resources and services.